This is the latest recevied weather packets stored in our database for station/object DH4SBM. If no packets are shown the sender has not sent any weather packets the latest 1 day(s).
| Time | Temp. | Humidity | Pressure | Rain* | Wind** | Luminosity | Snow |
|---|---|---|---|---|---|---|---|
| 1777974939 | 18.89° C | 68% | 1009.3 hPa | 0 mm | 1.34 m/s, 270° | 381 W/m² | - |
| 1777974339 | 18.89° C | 68% | 1009.3 hPa | 0 mm | 1.79 m/s, 315° | 506 W/m² | - |
| 1777973740 | 19.44° C | 67% | 1009.4 hPa | 0 mm | 1.34 m/s, 315° | 882 W/m² | - |
| 1777973140 | 18.33° C | 69% | 1009.5 hPa | 0 mm | 1.34 m/s, 360° | 684 W/m² | - |
| 1777972539 | 18.33° C | 69% | 1009.6 hPa | 0 mm | 1.34 m/s, 338° | 420 W/m² | - |
| 1777971939 | 18.33° C | 70% | 1009.7 hPa | 0 mm | 0.89 m/s, 292° | 392 W/m² | - |
| 1777971339 | 18.33° C | 71% | 1009.8 hPa | 0 mm | 1.79 m/s, 248° | 663 W/m² | - |
| 1777970739 | 17.78° C | 72% | 1009.8 hPa | 0 mm | 1.34 m/s, 292° | 663 W/m² | - |
| 1777970139 | 17.78° C | 72% | 1009.9 hPa | 0 mm | 1.34 m/s, 292° | 738 W/m² | - |
| 1777969539 | 17.78° C | 74% | 1010 hPa | 0 mm | 0.45 m/s, 248° | 387 W/m² | - |
| 1777968939 | 17.22° C | 74% | 1010 hPa | 0 mm | 0.89 m/s, 270° | 272 W/m² | - |
| 1777968338 | 16.67° C | 75% | 1010.1 hPa | 0 mm | 0.89 m/s, 270° | 297 W/m² | - |
| 1777967738 | 16.67° C | 75% | 1010.1 hPa | 0 mm | 1.34 m/s, 292° | 348 W/m² | - |
| 1777967138 | 16.11° C | 76% | 1010.2 hPa | 0 mm | 0.89 m/s, 292° | 343 W/m² | - |
| 1777966538 | 16.11° C | 77% | 1010.2 hPa | 0 mm | 0.89 m/s, 292° | 381 W/m² | - |
| 1777965939 | 16.11° C | 78% | 1010.2 hPa | 0 mm | 1.34 m/s, 292° | 225 W/m² | - |
| 1777965339 | 15.56° C | 78% | 1010.4 hPa | 0 mm | 1.34 m/s, 292° | 359 W/m² | - |
| 1777964739 | 15.56° C | 80% | 1010.7 hPa | 0 mm | 0 m/s | 445 W/m² | - |
| 1777964139 | 14.44° C | 82% | 1010.8 hPa | 0 mm | 0 m/s | 383 W/m² | - |
| 1777963539 | 14.44° C | 83% | 1010.8 hPa | 0 mm | 0 m/s | 281 W/m² | - |
| 1777962938 | 13.89° C | 84% | 1010.7 hPa | 0 mm | 0 m/s | 318 W/m² | - |
| 1777962338 | 13.89° C | 84% | 1010.8 hPa | 0 mm | 0 m/s | 104 W/m² | - |
| 1777961738 | 13.89° C | 84% | 1010.8 hPa | 0 mm | 0 m/s | 118 W/m² | - |
| 1777961138 | 13.89° C | 84% | 1010.8 hPa | 0 mm | 0 m/s | 67 W/m² | - |
| 1777960538 | 13.89° C | 84% | 1010.9 hPa | 0 mm | 0 m/s | 70 W/m² | - |
* Rain latest hour (hover to see other rain measurements)
** Current wind speed in m/s (hover to see current wind gust speed)